Time,TemperatureF,DewpointF,PressureIn,WindDirection,WindDirectionDegrees,WindSpeedMPH,WindSpeedGustMPH,Humidity,HourlyPrecipIn,Conditions,Clouds,dailyrainin,SolarRadiationWatts/m^2,SoftwareType,DateUTC
2013-05-06 00:01:00,53.0,46.0,-100.00,SSE,167,0.0,7.0,76,0.00,,,-99.99,1.000000,,2013-05-06 07:01:00,
2013-05-06 00:32:00,51.0,47.0,-100.00,SSE,155,0.0,5.0,86,0.00,,,-99.99,1.000000,,2013-05-06 07:32:00,
2013-05-06 00:42:00,51.0,47.0,-100.00,SSE,155,0.0,5.0,86,0.00,,,-99.99,1.000000,,2013-05-06 07:42:00,
2013-05-06 00:52:00,51.0,47.0,-100.00,SSE,155,0.0,5.0,86,0.00,,,-99.99,1.000000,,2013-05-06 07:52:00,
2013-05-06 01:01:00,51.0,47.0,-100.00,SSE,155,0.0,5.0,86,0.00,,,-99.99,1.000000,,2013-05-06 08:01:00,
2013-05-06 01:32:00,49.0,47.0,-100.00,South,170,0.0,4.0,94,0.00,,,-99.99,1.000000,,2013-05-06 08:32:00,
2013-05-06 01:42:00,49.0,47.0,-100.00,South,170,0.0,4.0,94,0.00,,,-99.99,1.000000,,2013-05-06 08:42:00,
2013-05-06 01:52:00,49.0,47.0,-100.00,South,170,0.0,4.0,94,0.00,,,-99.99,1.000000,,2013-05-06 08:52:00,
2013-05-06 02:01:00,49.0,47.0,-100.00,South,170,0.0,4.0,94,0.00,,,-99.99,1.000000,,2013-05-06 09:01:00,
2013-05-06 02:33:00,49.0,48.0,-100.00,SSE,153,0.0,5.0,98,0.00,,,-99.99,1.000000,,2013-05-06 09:33:00,
2013-05-06 02:43:00,49.0,48.0,-100.00,SSE,153,0.0,5.0,98,0.00,,,-99.99,1.000000,,2013-05-06 09:43:00,
2013-05-06 02:53:00,49.0,48.0,-100.00,SSE,153,0.0,5.0,98,0.00,,,-99.99,1.000000,,2013-05-06 09:53:00,
2013-05-06 03:02:00,49.0,48.0,-100.00,SSE,153,0.0,5.0,98,0.00,,,-99.99,1.000000,,2013-05-06 10:02:00,
2013-05-06 03:22:00,49.0,49.0,-100.00,SSE,165,3.0,4.0,100,0.00,,,-99.99,1.000000,,2013-05-06 10:22:00,
2013-05-06 03:33:00,49.0,49.0,-100.00,SSE,165,3.0,4.0,100,0.00,,,-99.99,1.000000,,2013-05-06 10:33:00,
2013-05-06 03:42:00,49.0,49.0,-100.00,SSE,165,3.0,4.0,100,0.00,,,-99.99,1.000000,,2013-05-06 10:42:00,
2013-05-06 03:52:00,49.0,49.0,-100.00,SSE,165,3.0,4.0,100,0.00,,,-99.99,1.000000,,2013-05-06 10:52:00,
2013-05-06 04:02:00,49.0,49.0,-100.00,SSE,165,3.0,4.0,100,0.00,,,-99.99,1.000000,,2013-05-06 11:02:00,
2013-05-06 04:32:00,49.0,48.0,-100.00,South,170,0.0,5.0,98,0.00,,,-99.99,1.000000,,2013-05-06 11:32:00,
2013-05-06 04:42:00,49.0,48.0,-100.00,South,170,0.0,5.0,98,0.00,,,-99.99,1.000000,,2013-05-06 11:42:00,
2013-05-06 04:52:00,49.0,48.0,-100.00,South,170,0.0,5.0,98,0.00,,,-99.99,1.000000,,2013-05-06 11:52:00,
2013-05-06 05:01:00,49.0,48.0,-100.00,South,170,0.0,5.0,98,0.00,,,-99.99,1.000000,,2013-05-06 12:01:00,
2013-05-06 05:32:00,50.0,49.0,-100.00,SSE,166,0.0,4.0,97,0.00,,,-99.99,1.000000,,2013-05-06 12:32:00,
2013-05-06 05:42:00,50.0,49.0,-100.00,SSE,166,0.0,4.0,97,0.00,,,-99.99,1.000000,,2013-05-06 12:42:00,
2013-05-06 05:52:00,50.0,49.0,-100.00,SSE,166,0.0,4.0,97,0.00,,,-99.99,1.000000,,2013-05-06 12:52:00,
2013-05-06 06:01:00,50.0,49.0,-100.00,SSE,166,0.0,4.0,97,0.00,,,-99.99,1.000000,,2013-05-06 13:01:00,
2013-05-06 07:32:00,49.0,49.0,-100.00,SE,139,0.0,3.0,100,-99.99,,,-99.99,28.000000,,2013-05-06 14:32:00,
2013-05-06 07:42:00,49.0,49.0,-100.00,SE,139,0.0,3.0,100,-99.99,,,-99.99,28.000000,,2013-05-06 14:42:00,
2013-05-06 07:52:00,49.0,49.0,-100.00,SE,139,0.0,3.0,100,-99.99,,,-99.99,28.000000,,2013-05-06 14:52:00,
2013-05-06 08:01:00,49.0,49.0,-100.00,SE,139,0.0,3.0,100,-99.99,,,-99.99,28.000000,,2013-05-06 15:01:00,
2013-05-06 08:33:00,57.0,49.0,-100.00,South,169,5.0,9.0,75,0.00,,,-99.99,50.000000,,2013-05-06 15:33:00,
2013-05-06 08:42:00,57.0,49.0,-100.00,South,169,5.0,9.0,75,0.00,,,-99.99,50.000000,,2013-05-06 15:42:00,
2013-05-06 08:53:00,57.0,49.0,-100.00,South,169,5.0,9.0,75,0.00,,,-99.99,50.000000,,2013-05-06 15:53:00,
2013-05-06 09:03:00,57.0,49.0,-100.00,South,169,5.0,9.0,75,0.00,,,-99.99,50.000000,,2013-05-06 16:03:00,
2013-05-06 09:33:00,60.0,48.0,-100.00,South,182,7.0,12.0,64,0.00,,,-99.99,206.000000,,2013-05-06 16:33:00,
2013-05-06 09:42:00,60.0,48.0,-100.00,South,182,7.0,12.0,64,0.00,,,-99.99,206.000000,,2013-05-06 16:42:00,
2013-05-06 09:52:00,60.0,48.0,-100.00,South,182,7.0,12.0,64,0.00,,,-99.99,206.000000,,2013-05-06 16:52:00,
2013-05-06 10:02:00,60.0,48.0,-100.00,South,182,7.0,12.0,64,0.00,,,-99.99,206.000000,,2013-05-06 17:02:00,
2013-05-06 11:22:00,63.0,49.0,-100.00,East,99,5.0,14.0,61,-99.99,,,-99.99,738.000000,,2013-05-06 18:22:00,
2013-05-06 11:32:00,63.0,49.0,-100.00,East,99,5.0,14.0,61,-99.99,,,-99.99,738.000000,,2013-05-06 18:32:00,
2013-05-06 11:43:00,63.0,49.0,-100.00,East,99,5.0,14.0,61,-99.99,,,-99.99,738.000000,,2013-05-06 18:43:00,
2013-05-06 11:52:00,63.0,49.0,-100.00,East,99,5.0,14.0,61,-99.99,,,-99.99,738.000000,,2013-05-06 18:52:00,
2013-05-06 12:01:00,63.0,49.0,-100.00,East,99,5.0,14.0,61,-99.99,,,-99.99,738.000000,,2013-05-06 19:01:00,
2013-05-06 12:22:00,61.0,47.0,-100.00,SW,229,6.0,11.0,61,0.00,,,0.00,856.000000,,2013-05-06 19:22:00,
2013-05-06 12:32:00,61.0,47.0,-100.00,SW,229,6.0,11.0,61,0.00,,,0.00,856.000000,,2013-05-06 19:32:00,
2013-05-06 12:42:00,61.0,47.0,-100.00,SW,229,6.0,11.0,61,0.00,,,0.00,856.000000,,2013-05-06 19:42:00,
2013-05-06 12:52:00,61.0,47.0,-100.00,SW,229,6.0,11.0,61,0.00,,,0.00,856.000000,,2013-05-06 19:52:00,
2013-05-06 13:01:00,61.0,47.0,-100.00,SW,229,6.0,11.0,61,0.00,,,0.00,856.000000,,2013-05-06 20:01:00,
2013-05-06 13:32:00,61.0,48.0,-100.00,SSW,203,6.0,13.0,62,0.00,,,0.00,920.000000,,2013-05-06 20:32:00,
2013-05-06 13:42:00,61.0,48.0,-100.00,SSW,203,6.0,13.0,62,0.00,,,0.00,920.000000,,2013-05-06 20:42:00,
2013-05-06 13:52:00,61.0,48.0,-100.00,SSW,203,6.0,13.0,62,0.00,,,0.00,920.000000,,2013-05-06 20:52:00,
2013-05-06 14:01:00,61.0,48.0,-100.00,SSW,203,6.0,13.0,62,0.00,,,0.00,920.000000,,2013-05-06 21:01:00,
2013-05-06 14:33:00,62.0,49.0,-100.00,ENE,68,5.0,13.0,63,0.00,,,-99.99,929.000000,,2013-05-06 21:33:00,
2013-05-06 14:43:00,62.0,49.0,-100.00,ENE,68,5.0,13.0,63,0.00,,,-99.99,929.000000,,2013-05-06 21:43:00,
2013-05-06 14:53:00,62.0,49.0,-100.00,ENE,68,5.0,13.0,63,0.00,,,-99.99,929.000000,,2013-05-06 21:53:00,
2013-05-06 15:03:00,62.0,49.0,-100.00,ENE,68,5.0,13.0,63,0.00,,,-99.99,929.000000,,2013-05-06 22:03:00,
2013-05-06 15:33:00,61.0,49.0,-100.00,WSW,257,5.0,12.0,65,0.00,,,0.00,887.000000,,2013-05-06 22:33:00,
2013-05-06 15:45:00,61.0,49.0,-100.00,WSW,257,5.0,12.0,65,0.00,,,0.00,887.000000,,2013-05-06 22:45:00,
2013-05-06 15:52:00,61.0,49.0,-100.00,WSW,257,5.0,12.0,65,0.00,,,0.00,887.000000,,2013-05-06 22:52:00,
2013-05-06 16:02:00,61.0,49.0,-100.00,WSW,257,5.0,12.0,65,0.00,,,0.00,887.000000,,2013-05-06 23:02:00,
2013-05-06 16:32:00,63.0,52.0,-100.00,WSW,250,4.0,12.0,68,0.00,,,0.00,789.000000,,2013-05-06 23:32:00,
2013-05-06 16:42:00,63.0,52.0,-100.00,WSW,250,4.0,12.0,68,0.00,,,0.00,789.000000,,2013-05-06 23:42:00,
2013-05-06 16:52:00,63.0,52.0,-100.00,WSW,250,4.0,12.0,68,0.00,,,0.00,789.000000,,2013-05-06 23:52:00,
2013-05-06 17:01:00,63.0,52.0,-100.00,WSW,250,4.0,12.0,68,0.00,,,0.00,789.000000,,2013-05-07 00:01:00,
2013-05-06 18:32:00,56.0,52.0,-100.00,West,274,3.0,12.0,86,-99.99,,,0.00,198.000000,,2013-05-07 01:32:00,
2013-05-06 18:42:00,56.0,52.0,-100.00,West,274,3.0,12.0,86,-99.99,,,0.00,198.000000,,2013-05-07 01:42:00,
2013-05-06 18:52:00,56.0,52.0,-100.00,West,274,3.0,12.0,86,-99.99,,,0.00,198.000000,,2013-05-07 01:52:00,
2013-05-06 19:02:00,56.0,52.0,-100.00,West,274,3.0,12.0,86,-99.99,,,0.00,198.000000,,2013-05-07 02:02:00,
2013-05-06 19:22:00,54.0,51.0,-100.00,SW,217,3.0,10.0,89,0.00,,,0.00,90.000000,,2013-05-07 02:22:00,
2013-05-06 19:32:00,54.0,51.0,-100.00,SW,217,3.0,10.0,89,0.00,,,0.00,90.000000,,2013-05-07 02:32:00,
2013-05-06 19:42:00,54.0,51.0,-100.00,SW,217,3.0,10.0,89,0.00,,,0.00,90.000000,,2013-05-07 02:42:00,
2013-05-06 19:52:00,54.0,51.0,-100.00,SW,217,3.0,10.0,89,0.00,,,0.00,90.000000,,2013-05-07 02:52:00,
2013-05-06 20:01:00,54.0,51.0,-100.00,SW,217,3.0,10.0,89,0.00,,,0.00,90.000000,,2013-05-07 03:01:00,
2013-05-06 20:32:00,53.0,52.0,-100.00,SSW,197,6.0,10.0,96,0.00,,,0.00,25.000000,,2013-05-07 03:32:00,
2013-05-06 20:43:00,53.0,52.0,-100.00,SSW,197,6.0,10.0,96,0.00,,,0.00,25.000000,,2013-05-07 03:43:00,
2013-05-06 20:53:00,53.0,52.0,-100.00,SSW,197,6.0,10.0,96,0.00,,,0.00,25.000000,,2013-05-07 03:53:00,
2013-05-06 21:02:00,53.0,52.0,-100.00,SSW,197,6.0,10.0,96,0.00,,,0.00,25.000000,,2013-05-07 04:02:00,
2013-05-06 21:33:00,51.0,50.0,-100.00,SSW,194,7.0,15.0,95,0.00,,,0.00,4.000000,,2013-05-07 04:33:00,
2013-05-06 21:42:00,51.0,50.0,-100.00,SSW,194,7.0,15.0,95,0.00,,,0.00,4.000000,,2013-05-07 04:42:00,
2013-05-06 21:53:00,51.0,50.0,-100.00,SSW,194,7.0,15.0,95,0.00,,,0.00,4.000000,,2013-05-07 04:53:00,
2013-05-06 22:02:00,51.0,50.0,-100.00,SSW,194,7.0,15.0,95,0.00,,,0.00,4.000000,,2013-05-07 05:02:00,
2013-05-06 22:32:00,51.0,50.0,-100.00,SSW,197,8.0,15.0,97,0.00,,,0.00,2.000000,,2013-05-07 05:32:00,
2013-05-06 22:42:00,51.0,50.0,-100.00,SSW,197,8.0,15.0,97,0.00,,,0.00,2.000000,,2013-05-07 05:42:00,
2013-05-06 22:52:00,51.0,50.0,-100.00,SSW,197,8.0,15.0,97,0.00,,,0.00,2.000000,,2013-05-07 05:52:00,
2013-05-06 23:02:00,51.0,50.0,-100.00,SSW,197,8.0,15.0,97,0.00,,,0.00,2.000000,,2013-05-07 06:02:00,
2013-05-06 23:32:00,51.0,49.0,-100.00,SSW,194,8.0,14.0,94,0.00,,,0.00,2.000000,,2013-05-07 06:32:00,
2013-05-06 23:42:00,51.0,49.0,-100.00,SSW,194,8.0,14.0,94,0.00,,,0.00,2.000000,,2013-05-07 06:42:00,
2013-05-06 23:52:00,51.0,49.0,-100.00,SSW,194,8.0,14.0,94,0.00,,,0.00,2.000000,,2013-05-07 06:52:00,